Flag for Germany Weather past 2 weeks in Friesoythe, Lower Saxony, Germany

Now
50 °F

Cool.


Feels Like: 46 °F
Forecast: 43 / 49 °F
Wind: 12 mph from Southwest

Location: Meppen-Mil

Current Time: Mar 28, 2015 at 8:17:45 PM

Latest Report: Mar 28, 2015 at 7:20 PM


Visibility: 3 mi

Pressure: 29.74 "Hg

Humidity: 88%

Dew point: 46 °F

Location of FriesoytheLocation

Historic Weather in Friesoythe — Graph

°F

Friesoythe temperature yesterday

Maximum temperature yesterday: 46 °F (at 2:20 PM)
Minimum temperature yesterday: 39 °F (at 11:20 PM)
Average temperature yesterday: 43 °F

Past Weeks' High & Low Weather Summary

 TemperatureHumidityPressure
High63 °F (Mar 18, 3:20 PM)100% (Mar 18, 3:20 AM)30.42 "Hg (Mar 18, 3:20 AM)
Low25 °F (Mar 23, 6:20 AM)41% (Mar 24, 4:20 PM)29.65 "Hg (Mar 25, 9:20 AM)
Average42 °F78%30.11 "Hg
* Reported Mar 13 6:20 PM — Mar 28 6:20 PM, Friesoythe, Weather by CustomWeather, © 2015

Note: Actual official high and low records may vary slightly from our data, if they occured in-between our weather recording intervals... More about our weather records

Advertising

Friesoythe weather history for previous 24 hours

 ConditionsComfort  
Time TempWeatherWind HumidityBarometerVisibility
6:20 PM
Sat, Mar 28
48 °FCool.14 mph87%29.77 "Hg3 mi
5:20 PM46 °FCool.12 mph93%29.80 "Hg4 mi
4:20 PM46 °FCool.10 mph93%29.83 "Hg1 mi
3:20 PM46 °FCool.13 mph87%29.86 "Hg2 mi
2:20 PM48 °FCool.12 mph76%29.89 "Hg3 mi
1:20 PM52 °FCool.12 mph54%29.95 "Hg4 mi
12:20 PM50 °FCool.10 mph54%29.98 "Hg5 mi
11:20 AM50 °FCool.12 mph54%30.01 "Hg5 mi
10:20 AM46 °FCool.10 mph66%30.04 "Hg5 mi
9:20 AM45 °FQuite cool.7 mph76%30.09 "Hg4 mi
8:20 AM37 °FChilly.3 mph93%30.09 "Hg2 mi
7:20 AM34 °FChilly.3 mph93%30.12 "Hg2 mi
6:20 AM30 °FChilly.1 mph93%30.15 "Hg0 mi
5:20 AM32 °FChilly.2 mph93%30.15 "Hg0 mi
4:20 AM34 °FChilly.2 mph93%30.15 "Hg0 mi
3:20 AM36 °FChilly.2 mph93%30.15 "Hg0 mi
2:20 AM37 °FChilly.5 mph93%30.15 "Hg2 mi
1:20 AM36 °FChilly.5 mph93%30.18 "Hg2 mi
12:20 AM37 °FChilly.3 mph93%30.15 "Hg2 mi
11:20 PM
Fri, Mar 27
39 °FChilly.3 mph93%30.15 "Hg3 mi
10:20 PM43 °FQuite cool.5 mph81%30.15 "Hg3 mi
9:20 PM43 °FQuite cool.6 mph81%30.15 "Hg4 mi
8:20 PM45 °FQuite cool.6 mph76%30.12 "Hg5 mi
Weather by CustomWeather, © 2015

See weather overviewHow to use our weather pages